Location: Alpha Ridge Park
(39.3209°N, 76.9128°W)
Time: 07:16:36
(UTC-04:00)

AO-92 - Pass Details

Date: 08 July 2022
Orbit: 469 x 481 km, 97.4° (Epoch: 09 August)

Event Time Altitude Azimuth Distance (km) Brightness Sun altitude
Exits shadow 23:59:59 21° 281° (W) 1,122 ? -25.9°
Drops below altitude 10° 00:02:13 10° 318° (NW) 1,666 ? -26.0°
Sets 00:04:37 0° 334° (NNW) 2,553 ? -26.2°
